Preview of NWS' New Version of Forecast
This preview is not operational and should not be used for support decisions.

Regional Weather Roundup (RWR)

Issued by National Weather Service (NWS)

                            
000
ASUS45 KCYS 181110
RWRWY 

WYOMING REGIONAL WEATHER ROUNDUP
NATIONAL WEATHER SERVICE CHEYENNE WY
400 AM MST MON FEB 18 2019

NOTE:  "FAIR" INDICATES FEW OR NO CLOUDS BELOW 12,000 FEET
WITH NO SIGNIFICANT WEATHER AND/OR OBSTRUCTIONS TO VISIBILITY.

WYZ001-181200-
...YELLOWSTONE NATIONAL PARK...
  
CITY           SKY/WX    TMP DP  RH WIND       PRES   REMARKS
LK YELLOWSTONE   N/A    -17 -23  73 CALM      29.86F                  
W YELLOWSTONE  NOT AVBL                                               

$$
WYZ002>013-054>058-071-098>099-181200-
...NORTHERN WYOMING...
  
CITY           SKY/WX    TMP DP  RH WIND       PRES   REMARKS
JACKSON        CLEAR     -3  -7  82 N8        29.92S WCI -18          
CODY           FLURRIES   2  -2  83 N6        30.09F WCI  -9          
GREYBULL       CLOUDY     6   0  76 NW3       30.18F                  
WORLAND        CLOUDY     7   0  73 E3        30.15F                  
SHERIDAN       PTCLDY   -10 -14  82 SW6       30.23F WCI -23          
BUFFALO        CLEAR     -5 -11  75 SW5       30.11F WCI -16          
GILLETTE       PTCLDY   -15 -19  82 CALM      30.20F                  
HULETT         CLOUDY    -6  -9  84 MISG      30.22S                  
NEWCASTLE        N/A     -9 -15  77 N9        30.21F WCI -27          

$$
WYZ014>020-022>026-101>103-181200-
...CENTRAL WYOMING...
  
CITY           SKY/WX    TMP DP  RH WIND       PRES   REMARKS
BIG PINEY      PTCLDY   -16 -21  78 CALM      29.89F                  
PINEDALE       PTCLDY   -17 -24  70 NW8       29.88F WCI -34          
DUBOIS         FLURRIES   3   1  92 SE3       29.89F                  
LANDER         CLOUDY     9   4  80 N5        30.01F WCI   1          
RIVERTON       CLOUDY     7   2  80 NE7       30.02F WCI  -5          
CASPER         CLOUDY     1  -4  79 NE7       30.09F WCI -12          
DOUGLAS        CLEAR     -5 -10  79 CALM      30.15F                  

$$
WYZ021-027>030-104>119-181200-
...SOUTHERN WYOMING...
  
CITY           SKY/WX    TMP DP  RH WIND       PRES   REMARKS
EVANSTON       LGT SNOW   7   3  84 NE9       29.82S VSB 3/4 WCI  -7  
KEMMERER       CLOUDY     5   0  78 NE15      29.85R WCI -13          
FORT BRIDGER   CLOUDY     3   0  85 S7        29.88S WCI  -9          
ROCK SPRINGS   CLOUDY     5   1  83 NE15G23   29.89R FOG     WCI -13  
DIXON          CLOUDY     5  -2  74 SW3       29.85S                  
RAWLINS        CLOUDY     6   2  83 NE16      29.90F WCI -12          
SARATOGA       FAIR       1   1 100 SW6       29.87S WCI -10          
LARAMIE        CLOUDY     2  -1  88 SE15      29.88S WCI -17          
CHEYENNE       CLOUDY     3  -2  79 CALM      30.01F                  
TORRINGTON     CLEAR      0  -7  72 CALM      30.21S                  
PINE BLUFFS    CLOUDY     3  -4  72 MISG      30.12S                  

$$